STARLINK-32627 (62315 NORAD) Tracking and Keplerian Element Data

This shows tracking and keplerian element data for the satellite.

Feedback or suggestion? Click here.




ElementValue
Catalog62315
NameSTARLINK-32627
Epoch Orbit829
Epoch Day34.74259423
Epoch Year2025
RAAN247.6277
Inclination53.1581
Eccentricity0.0001211
Argument of Perigee112.292
Mean Anonmoly247.8214
Mean Motion15.39620889
Decay Rate6.869E-05
L11 62315U 24239Q 25034.74259423 .00006869 00000+0 18154-3 0 9997
L22 62315 53.1581 247.6277 0001211 112.2920 247.8214 15.39620889 8297



Live tracking and technical data element details for STARLINK-32627 (NORAD 62315). STARLINK-32627 can be tracked NOW for your location showing map with azimuth and elevation plus other details from your city location.







IsCatalogInMostPopularTable: catalog: 62315, numindb: 22
Update: records affected: 1



GetName: 62315 STARLINK-32627

Hit Count: updated at: Sun, 18 May 2025 23:54:39 GMT